SBI1138 UNNT-USRK

Flight info

Callsign SBI1138
Flight time N/A
Altitude 36000
Route DIMID R484 SOREB T631 NWK M59 ULGUN R717 PARUS
Aircraft A320/M-SDE3FGHIRWY/LB1

Departure

Time 2026-05-07 18:29
Airport Novosibirsk Tolmachevo Airport (UNNT)

Arrival

Time N/A
Airport Kogalym International Airport (USRK)
Time Latitude Longitude Altitude Speed Heading
2026-05-07 17:59 55.00955 82.66479 373 ft 0 kts 171°
2026-05-07 18:20 55.00959 82.66478 373 ft 3 kts 170°
2026-05-07 18:20 55.00985 82.66467 373 ft 4 kts 159°
2026-05-07 18:20 55.01009 82.66447 373 ft 4 kts 140°
2026-05-07 18:20 55.01025 82.66413 373 ft 4 kts 95°
2026-05-07 18:21 55.01024 82.66393 373 ft 1 kts 69°
2026-05-07 18:24 55.01026 82.66401 373 ft 3 kts 69°
2026-05-07 18:25 55.01033 82.66433 373 ft 2 kts 69°
2026-05-07 18:25 55.01037 82.66451 373 ft 1 kts 69°
2026-05-07 18:25 55.01040 82.66463 373 ft 1 kts 69°
2026-05-07 18:25 55.01049 82.66504 373 ft 4 kts 67°
2026-05-07 18:26 55.01060 82.66546 373 ft 5 kts 67°
2026-05-07 18:26 55.01084 82.66632 373 ft 10 kts 52°
2026-05-07 18:26 55.01159 82.66647 373 ft 13 kts 353°
2026-05-07 18:26 55.01243 82.66626 373 ft 11 kts 351°
2026-05-07 18:27 55.01314 82.66607 373 ft 9 kts 351°
2026-05-07 18:27 55.01367 82.66592 374 ft 6 kts 351°
2026-05-07 18:27 55.01379 82.66561 374 ft 2 kts 274°
2026-05-07 18:27 55.01377 82.66533 375 ft 0 kts 261°
2026-05-07 18:28 55.01368 82.66435 375 ft 37 kts 261°
2026-05-07 18:28 55.01289 82.65575 373 ft 105 kts 261°
2026-05-07 18:28 55.01145 82.63994 376 ft 157 kts 261°
2026-05-07 18:28 55.00974 82.61992 837 ft 165 kts 262°
2026-05-07 18:29 55.00792 82.60044 1635 ft 160 kts 258°
2026-05-07 18:29 55.00574 82.58177 2242 ft 157 kts 257°
2026-05-07 18:29 55.00372 82.56299 2853 ft 158 kts 260°
2026-05-07 18:29 55.00210 82.54403 3503 ft 158 kts 262°
2026-05-07 18:30 55.00387 82.52465 3853 ft 177 kts 298°
2026-05-07 18:30 55.01287 82.50802 4087 ft 202 kts 316°
2026-05-07 18:30 55.02398 82.49071 4372 ft 227 kts 315°
2026-05-07 18:30 55.03621 82.47117 4755 ft 250 kts 315°
2026-05-07 18:31 55.04940 82.44990 5328 ft 264 kts 315°
2026-05-07 18:31 55.06414 82.43025 6115 ft 272 kts 332°
2026-05-07 18:31 55.08267 82.42218 6882 ft 282 kts 358°
2026-05-07 18:31 55.10209 82.42616 7666 ft 287 kts
2026-05-07 18:32 55.12195 82.43175 8463 ft 291 kts
2026-05-07 18:32 55.14206 82.43755 9273 ft 295 kts
2026-05-07 18:32 55.16245 82.44342 10057 ft 299 kts
2026-05-07 18:32 55.18352 82.44944 10437 ft 318 kts
2026-05-07 18:33 55.20620 82.45578 10648 ft 341 kts
2026-05-07 18:33 55.23039 82.46248 10900 ft 361 kts
2026-05-07 18:33 55.25545 82.46948 11483 ft 368 kts
2026-05-07 18:33 55.28086 82.47663 12155 ft 372 kts
2026-05-07 18:34 55.28953 82.47908 12385 ft 373 kts
2026-05-07 18:34 55.39067 82.50753 14827 ft 388 kts
2026-05-07 18:35 55.41743 82.51511 15433 ft 390 kts
2026-05-07 18:35 55.44432 82.52279 16028 ft 393 kts
2026-05-07 18:35 55.47141 82.53052 16625 ft 396 kts
2026-05-07 18:35 55.49830 82.53818 17205 ft 398 kts
2026-05-07 18:36 55.52576 82.54605 17783 ft 401 kts
2026-05-07 18:36 55.55336 82.55398 18338 ft 403 kts
2026-05-07 18:36 55.58114 82.56194 18812 ft 406 kts
2026-05-07 18:36 55.60912 82.56990 19285 ft 409 kts
2026-05-07 18:37 55.63730 82.57789 19758 ft 411 kts
2026-05-07 18:37 55.66561 82.58599 20219 ft 414 kts
2026-05-07 18:37 55.69413 82.59419 20665 ft 417 kts
2026-05-07 18:37 55.72283 82.60245 21118 ft 419 kts
2026-05-07 18:38 55.75172 82.61073 21560 ft 422 kts
2026-05-07 18:38 55.78076 82.61909 21995 ft 424 kts
2026-05-07 18:38 55.80011 82.62470 22284 ft 426 kts
2026-05-07 18:38 55.82945 82.63322 22717 ft 429 kts
2026-05-07 18:39 55.86861 82.64460 23287 ft 432 kts
2026-05-07 18:39 55.88865 82.65043 23565 ft 433 kts
2026-05-07 18:39 55.92822 82.66195 24020 ft 437 kts
2026-05-07 18:39 55.95827 82.67066 24361 ft 439 kts
2026-05-07 18:40 55.97872 82.67658 24587 ft 440 kts
2026-05-07 18:40 56.00863 82.68526 24915 ft 443 kts
2026-05-07 18:40 56.03911 82.69223 25231 ft 441 kts 358°
2026-05-07 18:40 56.06962 82.69113 25552 ft 436 kts 348°
2026-05-07 18:41 56.09931 82.68168 25866 ft 432 kts 339°
2026-05-07 18:41 56.12772 82.66473 26191 ft 429 kts 334°
2026-05-07 18:41 56.15574 82.64585 26522 ft 431 kts 334°
2026-05-07 18:41 56.18387 82.62689 26842 ft 433 kts 334°
2026-05-07 18:42 56.21211 82.60789 27156 ft 434 kts 334°
2026-05-07 18:42 56.24046 82.58882 27457 ft 436 kts 333°
2026-05-07 18:42 56.26890 82.56968 27756 ft 438 kts 333°
2026-05-07 18:42 56.29750 82.55039 28067 ft 439 kts 333°
2026-05-07 18:43 56.32611 82.53100 28353 ft 440 kts 333°
2026-05-07 18:43 56.35445 82.51174 28638 ft 442 kts 333°
2026-05-07 18:43 56.38326 82.49216 28920 ft 443 kts 333°
2026-05-07 18:43 56.41208 82.47252 29295 ft 442 kts 333°
2026-05-07 18:44 56.44081 82.45287 29729 ft 441 kts 333°
2026-05-07 18:44 56.46945 82.43330 30129 ft 439 kts 332°
2026-05-07 18:44 56.49796 82.41380 30476 ft 438 kts 332°
2026-05-07 18:44 56.52643 82.39432 30803 ft 437 kts 332°
2026-05-07 18:45 56.55480 82.37480 31134 ft 436 kts 332°
2026-05-07 18:45 56.58310 82.35529 31461 ft 435 kts 332°
2026-05-07 18:45 56.61132 82.33585 31786 ft 434 kts 332°
2026-05-07 18:45 56.63955 82.31641 32106 ft 433 kts 332°
2026-05-07 18:46 56.66771 82.29700 32425 ft 433 kts 332°
2026-05-07 18:46 56.69581 82.27755 32736 ft 432 kts 332°
2026-05-07 18:46 56.72385 82.25807 33055 ft 431 kts 332°
2026-05-07 18:46 56.75185 82.23860 33368 ft 430 kts 332°
2026-05-07 18:47 56.77980 82.21914 33678 ft 430 kts 332°
2026-05-07 18:47 56.80776 82.19967 33972 ft 430 kts 332°
2026-05-07 18:47 56.83567 82.18023 34221 ft 430 kts 332°
2026-05-07 18:47 56.86358 82.16074 34471 ft 429 kts 333°
2026-05-07 18:48 56.89148 82.14118 34719 ft 429 kts 333°
2026-05-07 18:48 56.91938 82.12155 34939 ft 429 kts 333°
2026-05-07 18:48 56.94724 82.10192 35158 ft 429 kts 333°
2026-05-07 18:48 56.97512 82.08227 35373 ft 429 kts 333°
2026-05-07 18:49 57.00289 82.06229 35582 ft 427 kts 330°
2026-05-07 18:49 57.02904 82.03720 35787 ft 423 kts 325°
2026-05-07 18:49 57.05467 82.01037 35899 ft 425 kts 325°
2026-05-07 18:50 57.10578 81.95691 35914 ft 426 kts 326°
2026-05-07 18:50 57.15728 81.90287 35911 ft 426 kts 326°
2026-05-07 18:51 57.20874 81.84844 35911 ft 427 kts 326°
2026-05-07 18:51 57.26023 81.79385 35904 ft 427 kts 326°
2026-05-07 18:52 57.31182 81.73915 35906 ft 428 kts 326°
2026-05-07 18:52 57.36340 81.68426 35905 ft 428 kts 326°
2026-05-07 18:53 57.41462 81.62953 35903 ft 428 kts 326°
2026-05-07 18:53 57.46615 81.57430 35900 ft 428 kts 326°
2026-05-07 18:54 57.51766 81.51903 35893 ft 428 kts 326°
2026-05-07 18:54 57.56915 81.46355 35890 ft 427 kts 326°
2026-05-07 18:55 57.62062 81.40792 35887 ft 427 kts 326°
2026-05-07 18:55 57.67200 81.35206 35884 ft 428 kts 326°
2026-05-07 18:56 57.72304 81.29637 35883 ft 428 kts 326°
2026-05-07 18:56 57.77443 81.24011 35883 ft 428 kts 326°
2026-05-07 18:57 57.82577 81.18379 35883 ft 427 kts 326°
2026-05-07 18:57 57.87706 81.12747 35884 ft 427 kts 326°
2026-05-07 18:58 57.92834 81.07103 35881 ft 427 kts 326°
2026-05-07 18:58 57.97952 81.01435 35880 ft 427 kts 325°
2026-05-07 18:59 58.03062 80.95748 35882 ft 426 kts 325°
2026-05-07 18:59 58.08168 80.90040 35883 ft 426 kts 325°
2026-05-07 19:00 58.13235 80.84369 35883 ft 426 kts 325°
2026-05-07 19:00 58.18335 80.78655 35887 ft 426 kts 325°
2026-05-07 19:01 58.23427 80.72921 35892 ft 426 kts 325°
2026-05-07 19:01 58.28516 80.67166 35896 ft 426 kts 325°
2026-05-07 19:02 58.33604 80.61393 35904 ft 426 kts 325°
2026-05-07 19:02 58.38682 80.55612 35903 ft 425 kts 324°
2026-05-07 19:03 58.43756 80.49818 35903 ft 425 kts 324°
2026-05-07 19:03 58.48788 80.44043 35904 ft 425 kts 324°
2026-05-07 19:04 58.53853 80.38223 35914 ft 424 kts 324°
2026-05-07 19:04 58.58908 80.32401 35914 ft 424 kts 324°
2026-05-07 19:05 58.63955 80.26557 35920 ft 424 kts 324°
2026-05-07 19:05 58.69000 80.20704 35922 ft 424 kts 324°
2026-05-07 19:06 58.74042 80.14831 35935 ft 423 kts 324°
2026-05-07 19:06 58.81551 80.06024 35938 ft 423 kts 324°
2026-05-07 19:07 58.86569 80.00091 35937 ft 423 kts 323°
2026-05-07 19:07 58.91578 79.94120 35935 ft 423 kts 323°
2026-05-07 19:08 58.96579 79.88139 35938 ft 423 kts 323°
2026-05-07 19:08 59.01582 79.82142 35940 ft 423 kts 323°
2026-05-07 19:09 59.06585 79.76128 35945 ft 423 kts 323°
2026-05-07 19:09 59.11581 79.70102 35957 ft 423 kts 323°
2026-05-07 19:10 59.16541 79.64103 35958 ft 422 kts 323°
2026-05-07 19:10 59.21529 79.58051 35962 ft 422 kts 323°
2026-05-07 19:11 59.26509 79.51972 35952 ft 422 kts 322°
2026-05-07 19:11 59.31480 79.45884 35962 ft 422 kts 323°
2026-05-07 19:12 59.36457 79.39800 35966 ft 421 kts 322°
2026-05-07 19:12 59.41412 79.33681 35977 ft 421 kts 322°
2026-05-07 19:13 59.46362 79.27548 35981 ft 420 kts 322°
2026-05-07 19:13 59.51308 79.21430 35986 ft 420 kts 322°
2026-05-07 19:14 59.56207 79.15339 35990 ft 419 kts 322°
2026-05-07 19:14 59.61126 79.09194 35995 ft 418 kts 322°
2026-05-07 19:15 59.66038 79.03033 36000 ft 417 kts 321°
2026-05-07 19:15 59.70932 78.96863 36005 ft 417 kts 321°
2026-05-07 19:16 59.75826 78.90691 36011 ft 417 kts 321°
2026-05-07 19:16 59.80712 78.84510 36011 ft 416 kts 321°
2026-05-07 19:17 59.85583 78.78307 36013 ft 416 kts 321°
2026-05-07 19:17 59.90449 78.72084 36017 ft 415 kts 321°
2026-05-07 19:18 59.95278 78.65912 36020 ft 415 kts 321°
2026-05-07 19:18 60.00133 78.59673 36018 ft 415 kts 320°
2026-05-07 19:19 60.04980 78.53418 36024 ft 415 kts 320°
2026-05-07 19:19 60.09825 78.47156 36023 ft 414 kts 320°
2026-05-07 19:20 60.14664 78.40873 36027 ft 414 kts 320°
2026-05-07 19:20 60.19492 78.34580 36032 ft 414 kts 320°
2026-05-07 19:21 60.24313 78.28277 36035 ft 413 kts 320°
2026-05-07 19:21 60.29130 78.21961 36036 ft 413 kts 320°
2026-05-07 19:22 60.33930 78.15636 36037 ft 412 kts 320°
2026-05-07 19:22 60.38723 78.09292 36035 ft 412 kts 319°
2026-05-07 19:23 60.43477 78.02978 36033 ft 411 kts 319°
2026-05-07 19:23 60.48258 77.96609 36033 ft 411 kts 319°
2026-05-07 19:24 60.53030 77.90228 36035 ft 410 kts 319°
2026-05-07 19:24 60.57794 77.83833 36034 ft 410 kts 319°
2026-05-07 19:25 60.62551 77.77433 36033 ft 410 kts 319°
2026-05-07 19:25 60.67288 77.70986 36030 ft 407 kts 316°
2026-05-07 19:26 60.71173 77.62966 36033 ft 392 kts 300°